Klar mit einigen niederen Wolken
Klar mit einigen niederen Wolken
Klar mit einigen niederen Wolken
Klar mit einigen niederen Wolken
Klar mit einigen niederen Wolken
Wechselhaft, wahrscheinlich mit Gewitterwolken
Wechselhaft, wahrscheinlich mit Gewitterwolken
(°C)
22°
22°
22°
22°
21°
21°
20°
20°
20°
20°
20°
20°
19°
19°
(°C)
22°
23°
22°
22°
22°
21°
21°
WSW
WSW
WSW
SW
S
SSO
OSO
(km/h)
11-22
7-15
5-11
4-10
4-9
5-9
5-12
(mm)
0
0
0
0
0
0
0
(%)
15
7
7
0
0
0
0

Sonnenhöhe

/ 17.8°
sun-icon
UV 6
06:06
19:09
Zunehmender Halbmond (75°)
10:14
00:43

METAR für Beirut (OLBA)

Zeit Bedingungen Temperatur/
Taupunkt
Wind Sichtweite Wetter Wolken Druck Änderung Roh
MVFR 22°C / 17°C 250º 6kt 7000m - Scattered Clouds 2300ft 1014 No Significant change OLBA 141400Z 25006KT 7000 SCT023 22/17 Q1014 NOSIG
MVFR 22°C / 16°C 240º 6kt 7000m - Scattered Clouds 2300ft 1014 No Significant change OLBA 141300Z 24006KT 7000 SCT023 22/16 Q1014 NOSIG
MVFR 22°C / 17°C 240º 8kt 7000m - Scattered Clouds 2300ft 1014 No Significant change OLBA 141200Z 24008KT 7000 SCT023 22/17 Q1014 NOSIG
MVFR 22°C / 17°C 220º 8kt 7000m - Scattered Clouds 2300ft 1015 No Significant change OLBA 141100Z 22008KT 7000 SCT023 22/17 Q1015 NOSIG
MVFR 22°C / 17°C 220º 8kt 7000m - Scattered Clouds 2300ft 1015 No Significant change OLBA 141000Z 22008KT 7000 SCT023 22/17 Q1015 NOSIG
MVFR 21°C / 17°C 240º 7kt 7000m - Scattered Clouds 2300ft 1015 No Significant change OLBA 140900Z 24007KT 7000 SCT023 21/17 Q1015 NOSIG
MVFR 21°C / 17°C 240º 7kt 7000m - Scattered Clouds 2300ft 1015 No Significant change OLBA 140800Z 24007KT 7000 SCT023 21/17 Q1015 NOSIG
MVFR 21°C / 17°C 220º 7kt 7000m - Scattered Clouds 2300ft 1015 No Significant change OLBA 140700Z 22007KT 7000 SCT023 21/17 Q1015 NOSIG
MVFR 20°C / 16°C 190º 3kt 7000m - Scattered Clouds 2300ft 1015 No Significant change OLBA 140600Z 19003KT 7000 SCT023 20/16 Q1015 NOSIG
MVFR 20°C / 15°C 160º 3kt 7000m - Broken Clouds 2300ft 1015 No Significant change OLBA 140500Z 16003KT 7000 BKN023 20/15 Q1015 NOSIG
MVFR 18°C / 15°C 120º 4kt 8000m - Scattered Clouds 2600ft 1015 No Significant change OLBA 140400Z 12004KT 8000 SCT026 18/15 Q1015 NOSIG
MVFR 18°C / 15°C 140º 4kt 8000m - Few Clouds 2600ft 1014 No Significant change OLBA 140300Z 14004KT 8000 FEW026 18/15 Q1014 NOSIG
MVFR 17°C / 15°C 160º 3kt 8000m - Few Clouds 2600ft 1014 No Significant change OLBA 140200Z 16003KT 8000 FEW026 17/15 Q1014 NOSIG
MVFR 19°C / 15°C 2kt 8000m - Few Clouds 2600ft 1014 No Significant change OLBA 140100Z VRB02KT 8000 FEW026 19/15 Q1014 NOSIG
MVFR 19°C / 15°C 110º 3kt 8000m - Few Clouds 2600ft 1014 No Significant change OLBA 140000Z 11003KT 8000 FEW026 19/15 Q1014 NOSIG
MVFR 20°C / 16°C 2kt 8000m - Broken Clouds 2600ft 1015 No Significant change OLBA 132300Z VRB02KT 8000 BKN026 20/16 Q1015 NOSIG
MVFR 20°C / 16°C 120º variable 090º to 150º 3kt 8000m - Broken Clouds 2600ft 1016 No Significant change OLBA 132200Z 12003KT 090V150 8000 BKN026 20/16 Q1016 NOSIG
MVFR 19°C / 17°C 2kt 8000m - Broken Clouds 2600ft 1016 No Significant change OLBA 132100Z VRB02KT 8000 BKN026 19/17 Q1016 NOSIG
MVFR 19°C / 17°C 230º 3kt 8000m - Scattered Clouds 2600ft 1016 No Significant change OLBA 132000Z 23003KT 8000 SCT026 19/17 Q1016 NOSIG
MVFR 20°C / 16°C 280º 3kt 8000m - Broken Clouds 2300ft 1016 No Significant change OLBA 131900Z 28003KT 8000 BKN023 20/16 Q1016 NOSIG
MVFR 20°C / 16°C 2kt 8000m - Broken Clouds 2300ft 1016 No Significant change OLBA 131800Z VRB02KT 8000 BKN023 20/16 Q1016 NOSIG
MVFR 20°C / 16°C 300º variable 270º to 340º 3kt 8000m - Broken Clouds 2300ft 1016 No Significant change OLBA 131700Z 30003KT 270V340 8000 BKN023 20/16 Q1016 NOSIG
MVFR 20°C / 17°C 290º variable 240º to 330º 4kt 8000m - Scattered Clouds 2700ft 1016 No Significant change OLBA 131600Z 29004KT 240V330 8000 SCT027 20/17 Q1016 NOSIG
MVFR 21°C / 16°C 310º 7kt 8000m - Few Clouds 2700ft 1015 No Significant change OLBA 131500Z 31007KT 8000 FEW027 21/16 Q1015 NOSIG

MVFR

22°C / 17°C

[Mehr]
Wind 250º 6kt
Sichtweite 7000m
Wetter -
Wolken Scattered Clouds 2300ft
Druck 1014
Änderung No Significant change
Roh OLBA 141400Z 25006KT 7000 SCT023 22/17 Q1014 NOSIG

MVFR

22°C / 16°C

[Mehr]
Wind 240º 6kt
Sichtweite 7000m
Wetter -
Wolken Scattered Clouds 2300ft
Druck 1014
Änderung No Significant change
Roh OLBA 141300Z 24006KT 7000 SCT023 22/16 Q1014 NOSIG

MVFR

22°C / 17°C

[Mehr]
Wind 240º 8kt
Sichtweite 7000m
Wetter -
Wolken Scattered Clouds 2300ft
Druck 1014
Änderung No Significant change
Roh OLBA 141200Z 24008KT 7000 SCT023 22/17 Q1014 NOSIG

MVFR

22°C / 17°C

[Mehr]
Wind 220º 8kt
Sichtweite 7000m
Wetter -
Wolken Scattered Clouds 2300ft
Druck 1015
Änderung No Significant change
Roh OLBA 141100Z 22008KT 7000 SCT023 22/17 Q1015 NOSIG

MVFR

22°C / 17°C

[Mehr]
Wind 220º 8kt
Sichtweite 7000m
Wetter -
Wolken Scattered Clouds 2300ft
Druck 1015
Änderung No Significant change
Roh OLBA 141000Z 22008KT 7000 SCT023 22/17 Q1015 NOSIG

MVFR

21°C / 17°C

[Mehr]
Wind 240º 7kt
Sichtweite 7000m
Wetter -
Wolken Scattered Clouds 2300ft
Druck 1015
Änderung No Significant change
Roh OLBA 140900Z 24007KT 7000 SCT023 21/17 Q1015 NOSIG

MVFR

21°C / 17°C

[Mehr]
Wind 240º 7kt
Sichtweite 7000m
Wetter -
Wolken Scattered Clouds 2300ft
Druck 1015
Änderung No Significant change
Roh OLBA 140800Z 24007KT 7000 SCT023 21/17 Q1015 NOSIG

MVFR

21°C / 17°C

[Mehr]
Wind 220º 7kt
Sichtweite 7000m
Wetter -
Wolken Scattered Clouds 2300ft
Druck 1015
Änderung No Significant change
Roh OLBA 140700Z 22007KT 7000 SCT023 21/17 Q1015 NOSIG

MVFR

20°C / 16°C

[Mehr]
Wind 190º 3kt
Sichtweite 7000m
Wetter -
Wolken Scattered Clouds 2300ft
Druck 1015
Änderung No Significant change
Roh OLBA 140600Z 19003KT 7000 SCT023 20/16 Q1015 NOSIG

MVFR

20°C / 15°C

[Mehr]
Wind 160º 3kt
Sichtweite 7000m
Wetter -
Wolken Broken Clouds 2300ft
Druck 1015
Änderung No Significant change
Roh OLBA 140500Z 16003KT 7000 BKN023 20/15 Q1015 NOSIG

MVFR

18°C / 15°C

[Mehr]
Wind 120º 4kt
Sichtweite 8000m
Wetter -
Wolken Scattered Clouds 2600ft
Druck 1015
Änderung No Significant change
Roh OLBA 140400Z 12004KT 8000 SCT026 18/15 Q1015 NOSIG

MVFR

18°C / 15°C

[Mehr]
Wind 140º 4kt
Sichtweite 8000m
Wetter -
Wolken Few Clouds 2600ft
Druck 1014
Änderung No Significant change
Roh OLBA 140300Z 14004KT 8000 FEW026 18/15 Q1014 NOSIG

MVFR

17°C / 15°C

[Mehr]
Wind 160º 3kt
Sichtweite 8000m
Wetter -
Wolken Few Clouds 2600ft
Druck 1014
Änderung No Significant change
Roh OLBA 140200Z 16003KT 8000 FEW026 17/15 Q1014 NOSIG

MVFR

19°C / 15°C

[Mehr]
Wind 2kt
Sichtweite 8000m
Wetter -
Wolken Few Clouds 2600ft
Druck 1014
Änderung No Significant change
Roh OLBA 140100Z VRB02KT 8000 FEW026 19/15 Q1014 NOSIG

MVFR

19°C / 15°C

[Mehr]
Wind 110º 3kt
Sichtweite 8000m
Wetter -
Wolken Few Clouds 2600ft
Druck 1014
Änderung No Significant change
Roh OLBA 140000Z 11003KT 8000 FEW026 19/15 Q1014 NOSIG

MVFR

20°C / 16°C

[Mehr]
Wind 2kt
Sichtweite 8000m
Wetter -
Wolken Broken Clouds 2600ft
Druck 1015
Änderung No Significant change
Roh OLBA 132300Z VRB02KT 8000 BKN026 20/16 Q1015 NOSIG

MVFR

20°C / 16°C

[Mehr]
Wind 120º variable 090º to 150º 3kt
Sichtweite 8000m
Wetter -
Wolken Broken Clouds 2600ft
Druck 1016
Änderung No Significant change
Roh OLBA 132200Z 12003KT 090V150 8000 BKN026 20/16 Q1016 NOSIG

MVFR

19°C / 17°C

[Mehr]
Wind 2kt
Sichtweite 8000m
Wetter -
Wolken Broken Clouds 2600ft
Druck 1016
Änderung No Significant change
Roh OLBA 132100Z VRB02KT 8000 BKN026 19/17 Q1016 NOSIG

MVFR

19°C / 17°C

[Mehr]
Wind 230º 3kt
Sichtweite 8000m
Wetter -
Wolken Scattered Clouds 2600ft
Druck 1016
Änderung No Significant change
Roh OLBA 132000Z 23003KT 8000 SCT026 19/17 Q1016 NOSIG

MVFR

20°C / 16°C

[Mehr]
Wind 280º 3kt
Sichtweite 8000m
Wetter -
Wolken Broken Clouds 2300ft
Druck 1016
Änderung No Significant change
Roh OLBA 131900Z 28003KT 8000 BKN023 20/16 Q1016 NOSIG

MVFR

20°C / 16°C

[Mehr]
Wind 2kt
Sichtweite 8000m
Wetter -
Wolken Broken Clouds 2300ft
Druck 1016
Änderung No Significant change
Roh OLBA 131800Z VRB02KT 8000 BKN023 20/16 Q1016 NOSIG

MVFR

20°C / 16°C

[Mehr]
Wind 300º variable 270º to 340º 3kt
Sichtweite 8000m
Wetter -
Wolken Broken Clouds 2300ft
Druck 1016
Änderung No Significant change
Roh OLBA 131700Z 30003KT 270V340 8000 BKN023 20/16 Q1016 NOSIG

MVFR

20°C / 17°C

[Mehr]
Wind 290º variable 240º to 330º 4kt
Sichtweite 8000m
Wetter -
Wolken Scattered Clouds 2700ft
Druck 1016
Änderung No Significant change
Roh OLBA 131600Z 29004KT 240V330 8000 SCT027 20/17 Q1016 NOSIG

MVFR

21°C / 16°C

[Mehr]
Wind 310º 7kt
Sichtweite 8000m
Wetter -
Wolken Few Clouds 2700ft
Druck 1015
Änderung No Significant change
Roh OLBA 131500Z 31007KT 8000 FEW027 21/16 Q1015 NOSIG

TAF für Beirut (OLBA)

From till


From till Wind 240º 10kt. Visibility 8000m. Scattered Clouds 2600ft.
With 40% probability, Temporarly from till Visibility 5000m. Mist .
Becoming from till
Becoming from till

Roh: TAF OLBA 141000Z 1412/1518 24010KT 8000 SCT026 PROB40 TEMPO 1406/1506 5000 BR BECMG 1418/1420 16004KT BKN026 BECMG 1506/1508 26010KT 9999 FEW026

Radar- und Niederschlags-Nowcast für Beirut

Nieselregen
Leicht
Moderat
Stark
Sehr schwer
Hagel

Die Ortsmarkierung zeigt auf Beirut. Diese Animation zeigt das Niederschlagsradar für den ausgewählten Zeitraum sowie eine 2h-Vorhersage. Orange Kreuze zeigen Blitze an. Daten bereitgestellt von nowcast.de (verfügbar in den USA, Europa, Australien). Nieselregen oder leichter Schneefall können für den Radar unsichtbar sein. Die Niederschlagsintensität ist farbcodiert und reicht von hellblau bis rot.

Aktuelle Satelliten- und Regenbilder für Beirut, Libanon

Die Standortmarkierung ist platziert auf Beirut. [Mehr]

Das Echtzeit-Satellitenbild kombiniert sichtbares Licht während des Tages mit Infrarotstrahlung während der Nacht. Nachts ist das Bild nicht dunkel, da Infrarotstrahlung Temperaturunterschiede erkennen kann. Leider sind niedrige Wolken und Nebel nur schwer von den Bodentemperaturen zu unterscheiden und können daher nachts fast unsichtbar sein. Meteosat-Satellitenbilder für Europa werden alle 5 Minuten in Echtzeit aktualisiert. Die Bilder GOES-16 / GOES-17 (Nord- und Südamerika) und Himawari (Asien) werden alle 10 Minuten aktualisiert.

Niederschläge werden von Radar und Satelliten berechnet. Nachts sind die Niederschlagsberechnungen durch die Satelliten weniger genau als tagsüber.

© 2024 meteoblue, NOAA Satellites GOES-16 and EUMETSAT. Blitzdaten zur Verfügung gestellt von nowcast.

Zum Anfang
×
Hallo,
es scheint, als würden Sie einen Werbeblocker benutzen.

Werbung ist unerlässlich, um unsere kostenlose Website mit einzigartiger Detailtreue und Genauigkeit zu pflegen.

Bitte setzen Sie www.meteoblue.com auf die Whitelist Ihres Werbeblockers oder erwägen Sie den Kauf eines unserer Produkte:

Sie haben bereits ein Abonnement?
Dann melden Sie sich bitte an.